Regional Weather Roundup
Issued by NWS

Home | Current Version | Previous Version | Graphics & Text | Print | Product List | Glossary Off
Versions: 1 2 3 4 5 6 7 8 9 10 11 12 13 14 15 16 17 18 19 20 21 22 23 24 25 26 27 28 29 30 31 32 33 34 35 36 37 38 39 40 41 42 43 44 45 46 47 48 49 50

000
ASUS43 KLSX 202207
RWRMO

WEATHER SUMMARY FOR MISSOURI
NATIONAL WEATHER SERVICE SPRINGFIELD MO
500 PM CDT FRI OCT 20 2017

NOTE: "FAIR" INDICATES FEW OR NO CLOUDS BELOW 12,000 FEET WITH NO
       SIGNIFICANT WEATHER AND/OR OBSTRUCTIONS TO VISIBILITY.
       CURRENT SKY AND/OR WEATHER CONDITIONS ARE NOT AVAILABLE FOR
       CHILLICOTHE AND FARMINGTON.

MOZ001>031-035>038-043-044-053-054-202300-
...NORTHERN AND WESTERN MISSOURI...

CITY           SKY/WX    TMP DP  RH WIND       PRES   REMARKS
KANSAS CTY INT PTSUNNY   72  59  63 S21G30    29.88F
KANSAS C DTWN  CLOUDY    75  60  59 SE14G20   29.89F
LEE`S SUMMIT   MOSUNNY   72  59  63 S18G24    29.92F
ST JOSEPH      LGT RAIN  75  59  57 S17G30    29.84F
CHILLICOTHE      N/A     70  56  61 S12G20    29.94F
KIRKSVILLE     CLOUDY    70  53  54 S17       29.98R

$$
MOZ066>068-077>081-088>096-101>105-202300-
...SOUTHWEST MISSOURI...

CITY           SKY/WX    TMP DP  RH WIND       PRES   REMARKS
SPRINGFIELD    PTSUNNY   73  55  53 S17G24    30.01F
JOPLIN         SUNNY     73  58  59 SE18G26   29.95F
BRANSON        PTSUNNY   72  57  60 S15G22    30.07S

$$
MOZ032>034-039>042-045>050-055>058-069>072-202300-
...CENTRAL MISSOURI...

CITY           SKY/WX    TMP DP  RH WIND       PRES   REMARKS
COLUMBIA       CLOUDY    69  52  54 S8        30.01F
JEFFERSON CITY CLOUDY    72  51  47 SE6       30.01F
ROLLA          MOSUNNY   70  49  47 SE10      30.03F
SEDALIA        CLOUDY    71  57  61 S15       29.99F
WHITEMAN AFB   PTSUNNY   71  56  58 SE14      29.92F
WARRENSBURG    CLOUDY    72  55  56 SE12G20   29.94F
OSAGE BEACH    CLOUDY    69  53  56 S5        30.03F

$$
MOZ051-052-059>065-202300-
...EAST CENTRAL MISSOURI...

CITY           SKY/WX    TMP DP  RH WIND       PRES   REMARKS
ST LOUIS INTL  CLOUDY    74  50  42 SE14      30.06F
SPIRIT OF STL  CLOUDY    74  54  49 SE6       30.04F
ST CHARLES     CLOUDY    74  50  42 SE10      30.04F

$$
MOZ072>076-082>087-097>100-106>115-202300-
...SOUTH CENTRAL AND SOUTHEAST MISSOURI...

CITY           SKY/WX    TMP DP  RH WIND       PRES   REMARKS
CAPE GIRARDEAU MOSUNNY   74  48  39 S9        30.12S
FARMINGTON     MOSUNNY   72  50  45 S10       30.10F
POPLAR BLUFF   MOSUNNY   74  52  46 SE10      30.11F
WEST PLAINS    CLOUDY    71  53  52 S10       30.11R

$$



USA.gov is the U.S. government's official web portal to all federal, state and local government web resources and services.